sat.trackr.live / text

‹ back to catalog

STARLINK-2481

NORAD 48138 · 2021-027AY

PAYLOAD ACTIVE UNKNOWN

§ Identity

Operator
Country
US
Launch date
2021-04-07
Launch site
AFETR
Launch vehicle
Mass (kg)
RCS (m²)

Purposes: comms

External: N2YO · Heavens-Above · Gunter

§ Orbital elements

Epoch: 2026-05-25T02:19:04.543104Z

Period
94.01 min
Inclination
53.1580°
Eccentricity
0.0001737
Mean motion
15.31705427 rev/d
Perigee alt
469.5 km
Apogee alt
471.9 km
Semi-major
6,848.9 km
B*
3.2103e-5
RAAN
172.3866°
Arg perigee
75.0902°
Mean anomaly
285.0291°
Rev number
28,418

§ Raw data

STARLINK-24811 48138U 21027AY  26145.09658036  .00000631  00000+0  32103-4 0  99932 48138  53.1580 172.3866 0001737  75.0902 285.0291 15.31705427284187

JSON: /api/v1/satellites/48138 · /tle

For live sub-satellite position, see the globe view (requires WebGL).

§ Visibility from observer

Set your observer location to see the next 7 days of passes ≥ 10°. The values pass through the URL so the page stays shareable.

No JS? Fill the form by hand. The geolocation button needs JavaScript.